Das Wetter in  D-61279 Heinzenberg / Taunus





Wetter Minimum- & Maximum-Werte im September 2007

Standort: Heinzenberg / Taunus - Höhe 297 m         8 24' 1" Ost 50 21' 51" Nord
(   3-stündige Aktualisierung    letzte Aktualisierung um 19:04 am 30.09.2007  )


Messgrösse

Minimum

Maximum

Durchschnitt

Temperatur West /
Luftfeuchte West
Anklicken für Monats-Diagramm

3,7 C

04:35
19.09.2007

48 %

16:33
22.09.2007

25,2 C

16:04
23.09.2007

97 %

17:32
27.09.2007

Temp

12,4 C

Feuchte

83 %

Temperatur Ost /
Luftfeuchte Ost
Anklicken für Monats-Diagramm

3,8 C

04:45
19.09.2007

--

--
--

24,4 C

14:44
23.09.2007

--

--
--

12,3 C

--

Luftdruck Anklicken für Monats-Diagramm

1004,4 hPa

23:58
27.09.2007

1029,4 hPa

10:18
05.09.2007

1019,4 hPa

Taupunkt

2,5 C

07:37
16.09.2007

16,5 C

13:24
23.09.2007

9,4 C

Windchill
( gefühlte Temperatur )

-0,0 C

13:17
04.09.2007

25,2 C

16:04
23.09.2007

10,8 C

Windgeschwindigkeit /
Windrichtung
Anklicken für Monats-Diagramm

---

47,5 km/h / W

15:59
29.09.2007

7,0 km/h
W

Helligkeit /
Sonnenschein
Anklicken für Monats-Diagramm
Anklicken für Monats-Diagramm

Sonnenschein:

131:54 Stunden

Max: 10:40 Std am
23.09.2007

107 klux

12:28
05.09.2007

26 klux

Solarstrahlung Anklicken für Monats-Diagramm

---

732 W/m

12:28
05.09.2007

190 W/m

Regenmenge
    September 2007
Anklicken für Monats-Diagramm

Insgesamt 106,1 l/m

in 60:22 Stunden
an 17 Tagen

48,8 l/m

08:32
27.09.2007

Gesamtmenge

106,1 l/m

Regen-Tage
    September 2007
Anklicken für Monats-Diagramm

>   0 mm/Tag

>   2 mm/Tag

>   5 mm/Tag

> 10 mm/Tag

> 20 mm/Tag

17 Tage     
9 Tage     
5 Tage     
3 Tage     
  1 Tag     

Eisige Tage September 2007 / 2006

Tmin ≤ -10C     

0 Tage

/

0 Tage

Eistage September 2007 / 2006

Tmax <     0C     

0 Tage

/

0 Tage

Frosttage September 2007 / 2006

Tmin ≤     0C     

0 Tage

/

0 Tage

Kalte Tage September 2007 / 2006

Tmax <   10C     

0 Tage

/

0 Tage

Warme Tage September 2007 / 2006

Tmax ≥   20C     

8 Tage

/

28 Tage

Sommertage September 2007 / 2006

Tmax ≥   25C     

  1 Tag

/

16 Tage

Heisse Tage September 2007 / 2006

Tmax ≥   30C     

0 Tage

/

4 Tage


Monatsdiagramm September 2007

Die Kurven zeigen den Durchschnittswert des jeweiligen Tages an


Wetter-Monatsübersicht September 2007
Datum
  Temperatur
   Luftdruck
   Wind
  Regen
   Luftfeuchte
   Helligkeit

Sonnen-
schein


Temp.

Min.
Temp.

Max.
Temp.


Luftdruck

Min.
Luftdruck

Max.
Luftdruck

-Geschw.
Haupt-Richtg.

Max.
Wind

Menge /
Dauer


Feuchte

Min.
Feuchte

Max.
Feuchte


Helligkeit

Max.
Helligkeit

1.
September
14,6 C11,6 C
23:55
18,4 C
16:24
1019,7 hPa1018,5 hPa
00:04
1021,8 hPa
23:55
10,6 km/h
W
27,3 km/h
16:39  
1,2 l/m
2:45 Stunden
86 %71 %
16:44
94 %
08:34
19,0 klux67,4 klux
16:09
30 Min 
2.
September
14,6 C10,3 C
02:25
20,0 C
16:25
1018,8 hPa1015,2 hPa
23:31
1021,9 hPa
01:15
6,5 km/h
W-SW
31,6 km/h
14:10  
---
80 %61 %
16:50
92 %
09:25
18,1 klux90,1 klux
11:55
1:00 Std 
3.
September
13,3 C10,8 C
22:21
16,2 C
17:46
1013,4 hPa1010,2 hPa
09:26
1018,8 hPa
23:47
9,5 km/h
W-SW
34,3 km/h
05:46  
10,9 l/m
5:00 Stunden
85 %72 %
19:06
95 %
14:36
13,8 klux100,0 klux
14:46
2:10 Std 
4.
September
10,6 C7,5 C
06:52
14,7 C
17:17
1021,6 hPa1017,8 hPa
00:02
1026,3 hPa
23:58
9,9 km/h
NW
38,8 km/h
13:17  
3,8 l/m
1:20 Stunden
81 %62 %
18:52
92 %
13:52
36 klux105 klux
13:07
7:30 Std 
5.
September
10,6 C5,3 C
07:08
17,1 C
16:33
1028,0 hPa1026,3 hPa
00:03
1029,4 hPa
10:18
4,8 km/h
W-NW
22,0 km/h
17:38  
---
78 %58 %
16:08
92 %
08:53
36 klux107 klux
12:28
5:39 Std 
6.
September
12,6 C8,9 C
02:38
19,6 C
16:48
1026,6 hPa1024,1 hPa
17:38
1028,4 hPa
02:38
3,9 km/h
W
17,6 km/h
18:13  
---
86 %69 %
18:38
92 %
08:18
14 klux74 klux
16:38
2:15 Std 
7.
September
13,9 C9,2 C
01:55
18,0 C
15:25
1026,3 hPa1025,2 hPa
15:25
1027,3 hPa
01:55
4,4 km/h
NW
20,3 km/h
12:55  
---
82 %72 %
15:25
89 %
03:20
17,7 klux86,1 klux
15:55
25 Min 
8.
September
13,7 C10,4 C
06:41
17,2 C
15:31
1024,2 hPa1021,3 hPa
17:41
1026,9 hPa
04:16
7,4 km/h
W-NW
25,6 km/h
11:11  
---
5 Minuten
86 %78 %
15:36
92 %
07:41
14,6 klux88,1 klux
15:11
15 Min 
9.
September
13,2 C10,8 C
23:57
15,0 C
14:17
1020,6 hPa1019,6 hPa
09:52
1021,9 hPa
23:57
6,5 km/h
W-NW
26,1 km/h
10:57  
0,3 l/m
40 Minuten
84 %71 %
15:07
93 %
05:57
14,1 klux55,9 klux
14:12
5 Min 
10.
September
11,7 C9,5 C
05:47
15,6 C
15:37
1015,5 hPa1011,0 hPa
15:37
1020,9 hPa
00:02
14,1 km/h
W
36,8 km/h
13:42  
3,8 l/m
3:20 Stunden
88 %77 %
15:42
94 %
18:27
13,0 klux76,4 klux
13:37
55 Min 
11.
September
12,8 C9,4 C
01:53
17,9 C
16:58
1019,5 hPa1014,7 hPa
00:03
1024,8 hPa
23:59
13,6 km/h
W
29,8 km/h
11:33  
0,3 l/m
40 Minuten
85 %67 %
16:58
94 %
00:43
27,7 klux107,0 klux
14:13
2:40 Std 
12.
September
13,2 C8,9 C
23:55
18,9 C
16:54
1026,3 hPa1024,8 hPa
00:04
1028,4 hPa
23:55
2,6 km/h
NW
17,6 km/h
13:19  
---
81 %61 %
16:59
93 %
09:04
35 klux102 klux
13:44
6:40 Std 
13.
September
11,9 C6,3 C
05:00
18,5 C
15:20
1025,8 hPa1022,2 hPa
19:00
1028,7 hPa
04:45
0,3 km/h
N-NO
7,3 km/h
12:00  
---
83 %67 %
17:10
93 %
09:50
27 klux92 klux
15:00
3:10 Std 
14.
September
12,9 C5,8 C
07:30
20,9 C
16:50
1019,6 hPa1016,6 hPa
17:10
1023,2 hPa
00:50
5,7 km/h
W-NW
27,5 km/h
15:15  
---
79 %60 %
15:21
94 %
10:50
38,7 klux77,3 klux
13:50
8:36 Std 
15.
September
13,6 C7,9 C
23:52
19,7 C
16:01
1024,3 hPa1019,4 hPa
00:01
1026,9 hPa
10:21
6,8 km/h
NW
26,0 km/h
01:26  
---
74 %50 %
15:31
89 %
08:36
37,5 klux87,8 klux
13:11
8:30 Std 
16.
September
12,6 C4,3 C
07:37
22,6 C
15:37
1018,6 hPa1013,4 hPa
23:52
1024,5 hPa
01:57
4,7 km/h
W-SW
28,0 km/h
12:07  
---
76 %54 %
16:17
92 %
10:47
39,3 klux87,1 klux
13:12
9:05 Std 
17.
September
15,4 C11,8 C
03:02
20,0 C
13:53
1010,4 hPa1007,0 hPa
23:54
1013,5 hPa
01:47
8,1 km/h
W-SW
28,7 km/h
16:23  
5,5 l/m
4:11 Stunden
83 %68 %
13:58
93 %
20:43
20,2 klux83,0 klux
13:23
2:05 Std 
18.
September
10,5 C6,0 C
23:55
14,1 C
00:04
1014,0 hPa1006,1 hPa
01:54
1024,6 hPa
23:55
9,8 km/h
W-NW
29,1 km/h
13:49  
7,8 l/m
5:10 Stunden
92 %82 %
17:14
96 %
06:59
16,5 klux88,5 klux
12:19
1:30 Std 
19.
September
8,4 C3,7 C
04:35
15,2 C
16:10
1024,7 hPa1023,5 hPa
16:10
1025,9 hPa
06:35
5,0 km/h
W
27,5 km/h
15:25  
0,2 l/m
20 Minuten
81 %53 %
16:30
95 %
09:00
28,0 klux86,9 klux
12:40
4:45 Std 
20.
September
11,8 C6,6 C
01:21
18,8 C
16:31
1023,7 hPa1022,0 hPa
16:31
1024,8 hPa
11:11
7,1 km/h
W-SW
26,3 km/h
11:06  
1,2 l/m
1:05 Stunden
76 %56 %
17:11
91 %
05:16
37,7 klux73,0 klux
11:31
10:05 Std 
21.
September
12,2 C5,9 C
07:57
20,8 C
15:52
1023,2 hPa1020,7 hPa
16:22
1025,5 hPa
09:12
3,7 km/h
W-SW
22,0 km/h
14:07  
---
75 %51 %
16:47
91 %
10:27
39,2 klux74,6 klux
12:27
10:20 Std 
22.
September
13,7 C7,7 C
04:08
23,6 C
15:43
1022,6 hPa1020,4 hPa
16:22
1024,3 hPa
09:28
1,3 km/h
SO
16,0 km/h
14:23  
---
77 %48 %
16:33
91 %
10:08
39,4 klux71,3 klux
13:03
10:15 Std 
23.
September
15,1 C8,3 C
07:04
25,2 C
16:04
1022,7 hPa1020,2 hPa
16:04
1024,3 hPa
07:04
1,5 km/h
W-SW
12,5 km/h
12:59  
---
78 %52 %
15:39
93 %
11:09
39,1 klux68,7 klux
13:14
10:40 Std 
24.
September
15,6 C10,2 C
06:35
23,1 C
15:55
1016,1 hPa1012,2 hPa
17:00
1020,7 hPa
01:45
9,9 km/h
W-SW
36,7 km/h
16:45  
0,5 l/m
2:10 Stunden
78 %57 %
17:15
93 %
10:00
37,9 klux91,1 klux
13:20
8:20 Std 
25.
September
11,4 C8,9 C
07:10
15,4 C
13:55
1015,9 hPa1014,4 hPa
18:05
1017,0 hPa
08:30
11,5 km/h
W-SW
33,7 km/h
12:45  
4,7 l/m
3:10 Stunden
81 %61 %
14:01
94 %
06:20
29,7 klux92,1 klux
12:55
4:59 Std 
26.
September
8,7 C5,8 C
04:41
15,0 C
15:36
1014,0 hPa1011,1 hPa
15:36
1016,3 hPa
04:11
0,9 km/h
W
22,6 km/h
16:11  
12,9 l/m
4:10 Stunden
89 %76 %
15:46
93 %
10:46
17,4 klux86,5 klux
14:11
1:10 Std 
27.
September
9,3 C7,5 C
01:37
10,5 C
19:07
1007,9 hPa1004,4 hPa
23:58
1013,0 hPa
00:02
7,3 km/h
N
27,6 km/h
12:22  
48,8 l/m
20:06 Stunden
96 %93 %
00:02
97 %
17:32
3,5 klux10,3 klux
13:12
--- 
28.
September
10,0 C8,2 C
08:33
11,2 C
15:08
1005,7 hPa1004,4 hPa
00:03
1007,6 hPa
23:24
3,3 km/h
W
23,1 km/h
23:04  
0,9 l/m
3:25 Stunden
96 %94 %
22:44
97 %
00:03
9,6 klux29,9 klux
13:48
--- 
29.
September
11,6 C9,6 C
00:04
15,2 C
16:09
1010,8 hPa1006,5 hPa
00:09
1016,8 hPa
23:09
23,4 km/h
W
47,5 km/h
15:59  
3,3 l/m
2:45 Stunden
87 %72 %
15:59
95 %
00:09
18,3 klux85,7 klux
14:29
2:00 Std 
30.
September
12,7 C9,2 C
23:56
18,2 C
15:49
1022,2 hPa1016,7 hPa
01:04
1026,3 hPa
23:56
6,0 km/h
W-SW
20,1 km/h
01:14  
---
85 %65 %
16:04
94 %
00:04
33,2 klux80,0 klux
12:29
6:20 Std 



September
2007

Temperatur

  

Luftdruck

  

Wind

  

Regen

  

Luftfeuchte

  

Helligkeit

Sonnen-
schein

Min

Max

Min

Max

Max

Max

Min

Max

Max

Max

12,4 C

3,7 C

04:35 Uhr
19.09.2007

25,2 C

16:04 Uhr
23.09.2007

1019,4 hPa

1004,4 hPa

23:58 Uhr
27.09.2007

1029,4 hPa

10:18 Uhr
05.09.2007

7,0 km/h

W

47,5 km/h

15:59 Uhr
29.09.2007

48,8 l/m

20:06 Stunden
27.09.2007

83 %

48 %

16:33 Uhr
22.09.2007

97 %

17:32 Uhr
27.09.2007

25,7 klux

107,0 klux

12:28 Uhr
05.09.2007

10:40 Std

am
23.09.2007

Gesamt

Gesamt

106,1 l/m

17 Tage
60:22 h

131:54 Std


Wetter-Diagramme September 2007     Heinzenberg / Taunus   
TemperaturLuftfeuchte
SolarstrahlungLuftdruck
HelligkeitSonnenschein
RegenmengeRegendauer
Wind-GeschwindigkeitWind-Richtung